Вернуться в каталог

STARLINK-32744

АктивенСвязьVLEO
NORAD 62509·PAYLOAD·🇺🇸 United States

Запущен Jan 6, 2025 с Cape Canaveral Space Force Station

Loading…

Ближайшие Пролёты (ближайшие 24 часа)

TLE

СвежийSource: CelesTrak SupGP

Эпоха: Sep 14, 2026, 14:59 UTC

1 62509C 25003Y   26257.62479167  .00051405  00000+0  18621-2 0  2577
2 62509  43.0005 302.2726 0001573 274.4439  69.9464 15.27549749    19

Отслеживайте STARLINK-32744 в реальном времени с AllMySat

Download on the App Store